ATLAS 5 CENTAUR DEB, 46485

Orbit data source: Space-Track

ATLAS 5 CENTAUR DEB, 46485 is space debris in HEO originally from a launch on Wed, 17 Oct 2018 UTC launched from the Air Force Eastern Test Range (AFETR). Debris objects in space refer to the collection of defunct objects orbiting the Earth. Examples of debris include non-operational satellites, rocket bodies, and fragments generated from explosions, collisions, or faulty payload assembly.

Loading next visibility...
Identifier
46485, 2018-079BY
Orbit
HEO
Country
Flag of USUS
Related business
Flag of USUnited Launch Alliance/Lockheed Martin (US)
Manufacturer
ULA Decatur
Mission
Spacecraft
Bus & Motor
Unknown
Mass
Unknown
Launch date (UTC)
2018-10-17 (8 years ago)
Launch vehicle
Unknown
Launch site
Air Force Eastern Test Range (AFETR)
Object type
Payload
Rocket body
Debris
Shape & HBR
Unknown shape, 1.1 m
Radar Cross Section
RCS unknown

Expand to show TLE details & history
Last TLE update: 17 hours ago

TLE from 17 hours ago
0 ATLAS 5 CENTAUR DEB
1 46485U 18079BY  26133.02656633 -.00000147  00000-0  00000+0 0  9990
2 46485  13.3629 347.3088 4555584  57.2703 338.8012  2.01775359 33141
Epoch: 2026-05-13T00:38Z
TLE epoch observation values (Epoch: 2026-05-13T00:38:15.330Z)
Latitude
-0.00009°
Longitude
106.90913°
Altitude
10,417.767 km
Speed
5.692 km/s
True Right ascension
23h 09m 03s
True Declination
0° 00' 00"
Sunlit
Object was in daylight at epoch
Visualization orbit readout
Latitude
Unknown
Longitude
Unknown
Altitude
Unknown
Speed
Unknown
Apparent Right ascension
Unknown
Apparent Declination
Unknown
Sunlit
N/A
Visualization observer readout
Local Sidereal Time
02:14:33
Azimuth
Unknown
Elevation
Unknown
Doppler factor
Unknown
Orbital elements
Apogee altitude
32,130.247 km
Perigee altitude
8,025.659 km
Semi-major axis
26,456.09 km
Eccentricity
0.45556
Inclination
13.3629°
RAAN
347.3088°
Arg. of periapsis
57.2703°
True anomaly
302.83924°
Mean anomaly
338.8012°
Eccentric anomaly
323.14608°
Mean motion
0.50438 °/min
Orbital period
713.75 mins
BSTAR
0
Loading maneuver chart data...
Computing Atmospheric mass density...

Documentation

Showing up to 5 results
|